星链-35730(STARLINK-35730)

导读

STARLINK-35730是美国SpaceX星链互联网卫星星座的一员,于2025年10月31日发射入轨,归属于星链低轨卫星组网项目。该卫星依托星链系统,旨在为全球提供高速低延迟的宽带互联网服务,补全星链星座全球覆盖能力,拓展商用、民用以及特殊领域的网络服务覆盖范围,支撑星链项目持续推进全球卫星互联网布局。

Basic Information
目录编号:
66273
目录名称:
STARLINK-35730
国际标识:
2025-247J
轨道中心:
EARTH
卫星名称:
星链-35730
卫星全名:
星链-35730(STARLINK-35730)
卫星状态:
在轨 (已飞行308 天)
发射日期:
2025-10-31 UTC
国别 :
美国 (US)
星等 :
--
Orbit Information
数据来源 国际轨道数据
星历时间: 2026-09-04T14:29:32+0800
5小时前
查看轨道信息
半长轴: 6840.861km
偏心率: 0.0001112
轨道倾角: 53.160°
近地点辐角 96.014°
升交点赤经 77.807°
平近点角 264.099°
近地点: 461.963km
远地点: 463.485km
周期: 93.848分钟
每日圈数: 15.343933
Detailed Information
固有亮度:
5
最大亮度:
2.5
卫星平台:
Starlink V1.0
覆盖范围:
全球
运营商:
太空探索技术公司
运营商所在国:
美国
制造商(研发单位):
太空探索技术公司
制造商所在国:
美国
使用方式:
暂无
Satellite Introduction
Starlink 计划是 SpaceX 推出的全球卫星互联网项目,通过发射低轨道卫星,为全球尤其是偏远地区提供高速、低延迟的互联网服务。自 2019 年起,Starlink 已部署数千颗卫星,旨在缩小全球数字鸿沟,推动互联网普及。该项目还为军事、航空等行业提供通信支持,带来广泛经济效益。
2D Orbit Map
3D Orbit Map
Orbit Altitude Analysis Chart
Orbit Inclination Analysis Chart
Orbit Comprehensive Analysis Chart
View Comprehensive Chart
Conjunction Data List
Event ID Objects TCA Miss Dist (km) Collision Risk Probability Collision Risk Index (CRI) Action
CDM_260905-203105-015906-627321
2026-09-05T
20:31:58+0000
2.438 km
极远距离
1.337656E-6 低风险 0.38
CDM_260904-162004-941806-627321
2026-09-04T
16:20:38+0000
2.831 km
极远距离
8.731531E-7 极低风险 0.34
CDM_260830-150205-258106-627321
2026-08-30T
15:02:54+0000
2.780 km
极远距离
7.675586E-7 极低风险 0.33